• Join FlightAware (Why Join?)
  • Login
  • US Flag 
09:23AM EDT


 

Airport Tracker/Info


-or-


 

Live Flight TrackerFlight Track Log ✈ N504PG ✈ 24-Jul-2013 ✈ KFFX - KDET

Flight Track Log - Related Links

Times and Time Zones

All times are in EDT time to prevent confusion due to time zone crossing. See the N504PG flight status page for this flight to view local times or setup timezone preferences in your user account.

Time Position Orientation Groundspeed Altitude Reporting Facility
EDT Latitude Longitude Course Direction KTS MPH feet Rate Location/Type
06:03PM 43.3656 -85.7347 114° Southeast 149 171 4,100  Level Chicago Center
06:04PM 43.3481 -85.6836 115° Southeast 148 170 4,800 420 Climbing Chicago Center
06:05PM 43.3272 -85.6194 114° Southeast 150 173 5,000 60 Climbing Chicago Center
06:06PM 43.3064 -85.5592 115° Southeast 161 185 5,000  Level Chicago Center
06:07PM 43.3276 -85.6550 114° Southeast  Level Estimated
06:07PM 43.2867 -85.5000 115° Southeast 167 192 5,000  Level Chicago Center
06:08PM 43.3089 -85.5984 114° Southeast  Level Estimated
06:08PM 43.2664 -85.4428 116° Southeast 168 193 5,000  Level Chicago Center
06:09PM 43.2475 -85.3850 114° Southeast 167 192 5,000  Level Chicago Center
06:10PM 43.2286 -85.3281 114° Southeast 166 191 5,000  Level Chicago Center
06:11PM 43.2050 -85.2583 115° Southeast 166 191 5,000  Level Chicago Center
06:12PM 43.1864 -85.2017 114° Southeast 165 190 5,000  Level Chicago Center
06:13PM 43.1664 -85.1433 115° Southeast 166 191 5,000  Level Chicago Center
06:14PM 43.1467 -85.0867 115° Southeast 166 191 5,000  Level Chicago Center
06:15PM 43.1278 -85.0289 114° Southeast 166 191 5,000  Level Chicago Center
06:16PM 43.1133 -84.9692 108° East 166 191 5,000  Level Chicago Center
06:17PM 43.0981 -84.8961 106° East 166 191 5,000  Level Chicago Center
06:18PM 43.0858 -84.8356 105° East 166 191 5,000  Level Chicago Center
06:19PM 43.0722 -84.7756 107° East 166 191 5,000  Level Chicago Center
06:20PM 43.0592 -84.7153 106° East 166 191 5,000  Level Chicago Center
06:21PM 43.0456 -84.6553 107° East 166 191 5,000  Level Chicago Center
06:22PM 43.0319 -84.5939 107° East 167 192 5,000  Level Chicago Center
06:23PM 43.0156 -84.5206 107° East 168 193 5,000  Level Chicago Center
06:24PM 43.0022 -84.4594 107° East 169 194 5,000  Level Chicago Center